#timestamp,LO_Frequency,Hit,StdDev 
1630486815.2,286046998.6,N
1630486835.9,286046998.5,N
1630486855.7,286046999.4,N
1630486875.6,286046999.0,N
1630486895.4,286046998.6,N
1630486915.2,286047001.1,N
1630486935.1,286047000.6,N
1630486936.0,286047000.6,N
1630486955.8,286047001.1,N
1630486975.7,286046998.3,N
1630486995.5,286047000.5,N
1630487015.3,286047000.5,N
1630487065.2,286046998.3,E
1630487075.1,286047000.8,N
1630487095.9,286047000.1,P
1630487115.7,286047002.1,P
1630487135.6,286047002.6,Y
1630487155.4,286047000.3,P
1630487175.2,286046998.2,P
1630487195.1,286047000.4,N
1630487196.0,286047000.4,N
1630487215.8,286047002.3,N
1630487235.6,286047001.3,N
1630487255.5,286047001.3,N
1630487275.3,286047006.0,Y
1630487295.2,286047003.1,P
1630487315.9,286047003.2,N
1630487335.7,286047003.2,N
1630487355.6,286047004.1,Y
1630487375.4,286047002.8,P
1630487395.2,286047004.3,P
1630487415.1,286047002.0,N
1630487416.0,286047002.0,N
1630487435.8,286047002.2,N
1630487455.7,286047002.4,N
1630487475.5,286047000.4,N
1630487495.3,286047000.0,N
1630487515.2,286046998.5,N
1630487535.9,286046997.0,N
1630487555.7,286047000.7,N
1630487575.6,286046999.9,N
1630487595.4,286047001.7,N
1630487615.2,286047001.8,N
1630487635.1,286047002.2,N
1630487636.0,286047002.2,N
1630487655.8,286047004.1,N
1630487675.7,286047004.2,N
1630487695.5,286047003.6,N
1630487715.3,286047002.9,N
1630487735.2,286047005.8,Y
1630487755.0,286047001.8,P
1630487755.9,286047001.8,P
1630487775.8,286047002.1,P
1630487795.6,286047002.0,Y
1630487815.4,286047000.9,P
1630487835.3,286047000.2,N
1630487855.1,286047000.3,N
1630487875.8,286047000.7,N
1630487895.7,286046998.5,N
1630487915.5,286046998.9,N
1630487935.4,286046998.3,N
1630487955.2,286046998.4,N
1630487975.0,286046999.2,N
1630487975.9,286046999.2,N
1630487995.8,286046996.9,N
1630488015.6,286046996.7,N
1630488035.4,286046999.5,N
1630488055.3,286046998.6,N
1630488075.1,286047001.2,N
1630488095.9,286047001.2,N
1630488115.7,286047000.9,N
1630488135.5,286047000.1,N
1630488155.4,286047000.2,N
1630488175.2,286047000.4,N
1630488195.0,286047000.1,N
1630488195.9,286047000.1,N
1630488215.8,286047000.0,N
1630488235.6,286047000.9,N
1630488255.5,286047011.9,Y
1630488275.3,286047002.2,P
1630488295.1,286046999.8,N
1630488315.9,286047002.8,N
1630488335.7,286047002.8,N
1630488355.5,286047004.3,Y
1630488375.4,286047000.0,P
1630488395.2,286046999.7,N
1630488415.1,286047002.6,P
1630488416.0,286047002.6,N
1630488435.8,286047001.4,N
1630488455.6,286047002.7,N
1630488475.5,286047003.9,Y
1630488495.3,286047000.0,P
1630488515.1,286047002.4,P
1630488535.9,286047000.0,N
1630488555.7,286047002.6,N
1630488575.6,286047000.0,N
1630488595.4,286046998.3,N
1630488615.2,286046999.2,N
1630488635.1,286046997.8,N
1630488636.0,286046997.8,N
1630488655.8,286046998.0,N
1630488675.7,286046995.4,N
1630488695.5,286046996.1,N
1630488715.3,286046995.0,N
1630488735.2,286046995.0,N
1630488755.0,286046996.6,N
1630488755.9,286046996.6,N
1630488775.7,286046999.3,N
1630488795.6,286046998.7,N
1630488815.4,286047000.4,N
1630488835.3,286046999.3,N
1630488855.1,286046999.3,N
1630488856.0,286046999.3,N
1630488875.8,286046998.5,N
1630488895.7,286046998.5,N
1630488915.5,286046998.9,N
1630488935.4,286046998.7,N
1630488955.2,286046999.1,N
1630488975.1,286046999.0,N
1630488976.0,286046999.0,N
1630488995.8,286047001.0,N
1630489015.6,286046998.9,N
1630489035.5,286046998.2,N
1630489055.3,286047000.7,N
1630489075.1,286047000.6,N
1630489095.9,286047000.7,N
1630489115.7,286046998.3,N
1630489135.6,286047001.0,N
1630489155.4,286047000.5,N
1630489175.2,286047000.9,N
1630489195.1,286047000.5,N
1630489196.0,286047000.5,N
1630489215.8,286046999.8,N
1630489235.6,286046999.9,N
1630489255.5,286047000.9,N
1630489275.3,286047000.7,N
1630489295.2,286046998.1,N
1630489315.9,286046998.4,N
1630489335.7,286046996.6,Y
1630489355.6,286046996.9,P
1630489375.4,286046999.5,N
1630489395.3,286046999.0,N
1630489415.1,286046998.4,N
1630489416.0,286046998.4,N
1630489435.8,286047001.2,N
1630489455.7,286047000.3,N
1630489475.5,286046999.9,N
1630489495.3,286047000.0,N
1630489515.2,286046999.7,N
1630489535.0,286047002.3,N
1630489535.9,286047002.3,N
1630489555.8,286047000.2,N
1630489575.6,286046999.8,N
1630489595.4,286047000.5,N
1630489615.3,286047001.1,N
1630489665.1,286046998.5,E
1630489675.0,286047000.7,N
1630489675.9,286047000.7,P
1630489695.8,286047002.8,P
1630489715.6,286047000.2,N
1630489735.5,286047000.4,N
1630489755.3,286046999.9,N
1630489775.1,286047002.2,N
1630489795.9,286047001.5,N
1630489845.7,286047002.1,E
1630489855.7,286047000.4,N
1630489875.5,286047000.8,P
1630489895.3,286046999.4,P
1630489915.2,286046998.2,Y
1630489935.9,286046998.7,P
1630489955.7,286047000.8,N
1630489975.6,286047000.0,N
1630489995.4,286047000.9,N
1630490015.2,286046998.2,N
1630490035.1,286046999.0,N
1630490036.0,286046999.0,N
1630490055.8,286046998.5,N
1630490075.7,286047000.0,N
1630490095.5,286047000.3,N
1630490115.3,286047000.3,N
1630490135.2,286047000.7,N
1630490155.0,286046998.1,N
1630490155.9,286046998.1,N
1630490175.7,286047000.0,N
1630490195.6,286047002.7,N
1630490215.4,286047002.3,N
1630490235.3,286047002.5,N
1630490255.1,286047002.5,N
1630490256.0,286047002.5,N
1630490275.8,286047002.2,N
1630490295.7,286047002.1,N
1630490315.5,286047002.6,N
1630490335.4,286047002.1,N
1630490355.2,286047002.0,N
1630490375.0,286047001.4,N
1630490375.9,286047001.4,N
1630490395.8,286047001.5,N
